When you browse on this site, cookies collect data to enhance your experience and personalize the content and advertising you see.
Visit our Privacy Policy to learn more. By continuing to use the site, you agree to this use of cookies and data.
  • In Czech Republic
  • List of Countries
  • For 7 days
  • Water Temperature
  • Weather Map
  • Weather Widgets
  • user-avatar
    Login

    Hourly Weather Burg bei Magdeburg

    Today, 6 December, Friday

    Time Temperature Precipitation Wind Pressure Humidity
    00:00 -1°C° 0 mm 3 mps 757 mmHg 71%
    01:00 -1°C° 0 mm 3 mps 757 mmHg 70%
    02:00 -1°C° 0 mm 4 mps 756 mmHg 68%
    03:00 -1°C° 0 mm 4 mps 756 mmHg 67%
    04:00 -1°C° 0 mm 4 mps 755 mmHg 65%
    05:00 0°C° 0 mm 4 mps 755 mmHg 64%
    06:00 0°C° 0 mm 4 mps 755 mmHg 64%
    07:00 +1°C° 0 mm 5 mps 755 mmHg 63%
    08:00 +1°C° 0 mm 5 mps 755 mmHg 64%
    09:00 +2°C° 0 mm 5 mps 754 mmHg 66%
    10:00 +2°C° 0 mm 5 mps 754 mmHg 67%
    11:00 +2°C° 0.3 mm 5 mps 754 mmHg 71%
    12:00 +2°C° 0.3 mm 5 mps 753 mmHg 76%
    13:00 +3°C° 0.3 mm 5 mps 753 mmHg 80%
    14:00 +3°C° 0.6 mm 5 mps 753 mmHg 81%
    15:00 +2°C° 0.6 mm 5 mps 752 mmHg 83%
    16:00 +2°C° 0.6 mm 5 mps 751 mmHg 85%
    17:00 +3°C° 0.2 mm 5 mps 751 mmHg 84%
    18:00 +3°C° 0.2 mm 5 mps 751 mmHg 83%
    19:00 +3°C° 0.2 mm 5 mps 751 mmHg 82%
    20:00 +3°C° 0.5 mm 5 mps 750 mmHg 84%
    21:00 +3°C° 0.5 mm 5 mps 750 mmHg 85%
    22:00 +3°C° 0.5 mm 5 mps 750 mmHg 87%
    23:00 +5°C° 0.7 mm 5 mps 749 mmHg 87%

    Tomorrow, 7 December, Saturday

    Time Temperature Precipitation Wind Pressure Humidity
    00:00 +5°C° 0.7 mm 5 mps 749 mmHg 86%
    01:00 +5°C° 0.7 mm 5 mps 749 mmHg 86%
    02:00 +5°C° 0.1 mm 6 mps 748 mmHg 85%
    03:00 +5°C° 0.1 mm 6 mps 748 mmHg 83%
    04:00 +5°C° 0.1 mm 6 mps 747 mmHg 82%
    05:00 +5°C° 0.1 mm 6 mps 748 mmHg 83%
    06:00 +5°C° 0.1 mm 6 mps 748 mmHg 84%
    07:00 +5°C° 0.1 mm 6 mps 748 mmHg 86%
    08:00 +7°C° 0.2 mm 6 mps 749 mmHg 85%
    09:00 +7°C° 0.2 mm 6 mps 749 mmHg 84%
    10:00 +8°C° 0.2 mm 7 mps 750 mmHg 83%
    11:00 +8°C° 0 mm 7 mps 750 mmHg 82%
    12:00 +8°C° 0 mm 7 mps 751 mmHg 80%
    13:00 +8°C° 0 mm 7 mps 751 mmHg 79%
    14:00 +8°C° 0.1 mm 7 mps 751 mmHg 80%
    15:00 +6°C° 0.1 mm 7 mps 751 mmHg 81%
    16:00 +6°C° 0.1 mm 7 mps 751 mmHg 81%
    17:00 +7°C° 0.1 mm 6 mps 752 mmHg 82%
    18:00 +7°C° 0.1 mm 6 mps 752 mmHg 82%
    19:00 +7°C° 0.1 mm 6 mps 753 mmHg 82%
    20:00 +7°C° 0.1 mm 6 mps 753 mmHg 84%
    21:00 +7°C° 0.1 mm 5 mps 753 mmHg 85%
    22:00 +6°C° 0.1 mm 5 mps 754 mmHg 86%
    23:00 +6°C° 0 mm 5 mps 754 mmHg 86%

    Day after tomorrow, 8 December, Sunday

    Time Temperature Precipitation Wind Pressure Humidity
    00:00 +6°C° 0 mm 5 mps 753 mmHg 85%
    01:00 +6°C° 0 mm 5 mps 753 mmHg 85%
    02:00 +6°C° 0 mm 5 mps 753 mmHg 85%
    03:00 +6°C° 0 mm 4 mps 753 mmHg 84%
    04:00 +5°C° 0 mm 4 mps 752 mmHg 84%
    05:00 +5°C° 0 mm 5 mps 751 mmHg 83%
    06:00 +5°C° 0 mm 5 mps 751 mmHg 82%
    07:00 +6°C° 0 mm 5 mps 750 mmHg 81%
    08:00 +5°C° 0 mm 6 mps 750 mmHg 80%
    09:00 +5°C° 0 mm 6 mps 749 mmHg 78%
    10:00 +5°C° 0 mm 6 mps 748 mmHg 77%
    11:00 +7°C° 0.9 mm 6 mps 748 mmHg 79%
    12:00 +7°C° 0.9 mm 6 mps 747 mmHg 82%
    13:00 +7°C° 0.9 mm 5 mps 746 mmHg 84%
    14:00 +7°C° 0.2 mm 5 mps 746 mmHg 84%
    15:00 +8°C° 0.2 mm 5 mps 745 mmHg 84%
    16:00 +8°C° 0.2 mm 5 mps 745 mmHg 83%
    17:00 +8°C° 0.1 mm 5 mps 745 mmHg 83%
    18:00 +8°C° 0.1 mm 5 mps 745 mmHg 84%
    19:00 +8°C° 0.1 mm 5 mps 745 mmHg 84%
    20:00 +7°C° 0 mm 5 mps 745 mmHg 82%
    21:00 +6°C° 0 mm 5 mps 744 mmHg 80%
    22:00 +5°C° 0 mm 5 mps 744 mmHg 79%
    23:00 +5°C° 0.1 mm 5 mps 743 mmHg 78%

    9 December, Monday

    Time Temperature Precipitation Wind Pressure Humidity
    00:00 +5°C° 0.1 mm 6 mps 743 mmHg 78%
    01:00 +5°C° 0.1 mm 7 mps 743 mmHg 77%
    02:00 +5°C° 0.1 mm 6 mps 742 mmHg 79%
    03:00 +5°C° 0.1 mm 5 mps 742 mmHg 81%
    04:00 +3°C° 0.1 mm 5 mps 742 mmHg 82%
    05:00 +3°C° 0 mm 5 mps 742 mmHg 81%
    06:00 +3°C° 0 mm 6 mps 741 mmHg 79%
    07:00 +3°C° 0 mm 6 mps 741 mmHg 78%
    08:00 +4°C° 0 mm 6 mps 741 mmHg 78%
    09:00 +4°C° 0 mm 6 mps 740 mmHg 78%
    10:00 +4°C° 0 mm 6 mps 740 mmHg 77%
    11:00 +4°C° 0 mm 7 mps 739 mmHg 78%
    12:00 +4°C° 0 mm 7 mps 739 mmHg 79%
    13:00 +4°C° 0 mm 7 mps 738 mmHg 79%
    14:00 +4°C° 0.6 mm 7 mps 738 mmHg 82%
    15:00 +4°C° 0.6 mm 7 mps 738 mmHg 85%
    16:00 +4°C° 0.6 mm 6 mps 738 mmHg 88%
    17:00 +4°C° 0.1 mm 7 mps 739 mmHg 85%
    18:00 +5°C° 0.1 mm 7 mps 740 mmHg 83%
    19:00 +5°C° 0.1 mm 7 mps 741 mmHg 80%
    20:00 +5°C° 0 mm 8 mps 742 mmHg 80%
    21:00 +5°C° 0 mm 8 mps 743 mmHg 79%
    22:00 +4°C° 0 mm 8 mps 744 mmHg 79%
    23:00 +4°C° 0 mm 8 mps 745 mmHg 81%

    10 December, Tuesday

    Time Temperature Precipitation Wind Pressure Humidity
    00:00 +4°C° 0 mm 8 mps 746 mmHg 83%
    01:00 +2°C° 0 mm 8 mps 747 mmHg 85%
    02:00 +2°C° 0 mm 8 mps 749 mmHg 80%
    03:00 +1°C° 0 mm 8 mps 750 mmHg 75%
    04:00 +1°C° 0 mm 8 mps 751 mmHg 70%
    05:00 +1°C° 0 mm 8 mps 752 mmHg 70%
    06:00 +1°C° 0 mm 8 mps 753 mmHg 70%
    07:00 +1°C° 0 mm 8 mps 754 mmHg 70%
    08:00 0°C° 0 mm 7 mps 755 mmHg 72%
    09:00 +1°C° 0 mm 5 mps 756 mmHg 74%
    10:00 +1°C° 0 mm 4 mps 757 mmHg 76%
    11:00 +3°C° 0 mm 4 mps 757 mmHg 74%
    12:00 +3°C° 0 mm 4 mps 757 mmHg 73%
    13:00 +4°C° 0 mm 4 mps 757 mmHg 72%
    14:00 +3°C° 0 mm 4 mps 757 mmHg 74%
    15:00 +3°C° 0 mm 3 mps 756 mmHg 76%
    16:00 +2°C° 0 mm 3 mps 756 mmHg 79%
    17:00 +3°C° 0.1 mm 4 mps 755 mmHg 81%
    18:00 +2°C° 0.1 mm 5 mps 754 mmHg 84%
    19:00 +2°C° 0.1 mm 6 mps 752 mmHg 87%
    20:00 +2°C° 0.8 mm 7 mps 751 mmHg 88%
    21:00 +3°C° 0.8 mm 7 mps 750 mmHg 88%
    22:00 +2°C° 0.8 mm 8 mps 749 mmHg 89%
    23:00 +4°C° 0.4 mm 8 mps 747 mmHg 85%

    11 December, Wednesday

    Time Temperature Precipitation Wind Pressure Humidity
    00:00 +5°C° 0.4 mm 8 mps 746 mmHg 82%
    01:00 +6°C° 0.4 mm 8 mps 745 mmHg 78%
    02:00 +7°C° 0.2 mm 9 mps 745 mmHg 78%
    03:00 +7°C° 0.2 mm 9 mps 744 mmHg 79%
    04:00 +8°C° 0.2 mm 9 mps 744 mmHg 79%
    05:00 +7°C° 0.2 mm 8 mps 744 mmHg 78%
    06:00 +7°C° 0.2 mm 6 mps 745 mmHg 78%
    07:00 +6°C° 0.2 mm 5 mps 746 mmHg 77%
    08:00 +6°C° 0 mm 5 mps 746 mmHg 76%
    09:00 +5°C° 0 mm 4 mps 746 mmHg 75%
    10:00 +5°C° 0 mm 4 mps 746 mmHg 74%
    11:00 +6°C° 0 mm 4 mps 746 mmHg 73%
    12:00 +6°C° 0 mm 4 mps 746 mmHg 71%
    13:00 +6°C° 0 mm 5 mps 746 mmHg 70%
    14:00 +6°C° 0 mm 4 mps 746 mmHg 72%
    15:00 +5°C° 0 mm 4 mps 746 mmHg 73%
    16:00 +4°C° 0 mm 4 mps 746 mmHg 75%
    17:00 +3°C° 0 mm 5 mps 745 mmHg 76%
    18:00 +3°C° 0 mm 5 mps 745 mmHg 76%
    19:00 +3°C° 0 mm 5 mps 745 mmHg 77%
    20:00 +3°C° 0 mm 6 mps 745 mmHg 76%
    21:00 +2°C° 0 mm 6 mps 744 mmHg 75%
    22:00 +2°C° 0 mm 6 mps 744 mmHg 74%
    23:00 +3°C° 0 mm 6 mps 743 mmHg 75%
    Show more